Regional Weather Roundup
Issued by NWS

Home | Current Version | Previous Version | Graphics & Text | Print | Product List | Glossary On
Versions: 1 2 3 4 5 6 7 8 9 10 11 12 13 14 15 16 17 18 19 20 21 22 23 24 25 26 27 28 29 30 31 32 33 34 35 36 37 38 39 40 41 42 43 44 45 46 47 48 49 50
000
ASUS45 KSLC 032310
RWRUT

UTAH REGIONAL WEATHER ROUNDUP
NATIONAL WEATHER SERVICE SALT LAKE CITY UT
400 PM MST TUE MAR 03 2015

UTZ001>011-023>025-040000-

NORTHERN UTAH

CITY           SKY/WX    TMP DP  RH WIND       PRES   REMARKS
BRIGHAM CITY   SUNNY     37  20  50 NW9       29.91R WCI  30
DUGWAY         FLURRIES  38  22  52 NW18      29.92  WCI  28
HILL AFB       PTSUNNY   34  21  60 NE2       29.89R
LOGAN          MOSUNNY   35  18  49 N9        29.90R WCI  28
OGDEN          PTSUNNY   35  22  58 N3        29.89R
PROVO AIRPORT  PTSUNNY   34  27  75 NW20      29.89R WCI  22
SALT LAKE CITY PTSUNNY   37  25  61 N10       29.91R WCI  30
VERNAL         CLOUDY    32  27  81 E5        29.76R WCI  27
WENDOVER       CLOUDY    43  12  28 NW16      29.94R
HEBER CITY     CLOUDY    32  23  69 E5        29.83R WCI  27
WEST JORDAN    PTSUNNY   34  28  80 NW9       29.91R WCI  26

$$

UTZ012>022-026-027-040000-

SOUTHERN/CENTRAL UTAH

CITY           SKY/WX    TMP DP  RH WIND       PRES   REMARKS
BLANDING       MOSUNNY   38  29  69 SW10      29.86S WCI  31
BRYCE CANYON   MOSUNNY   28  17  63 W13       29.78S WCI  17
CEDAR CITY     FLURRIES  31  29  92 SE3       29.84R
DELTA          CLOUDY    35  23  61 N16       29.89S WCI  25
HANKSVILLE     CLOUDY    43  30  61 NW21G32   29.79R
MILFORD        CLOUDY    31  27  85 NE14      29.88R WCI  21
MOAB/CYNLANDS  SUNNY     44  26  49 SW10      29.72F
PRICE          MOSUNNY   36  18  48 NW15G23   29.76R WCI  27
ST GEORGE      MOCLDY    46  36  66 NW7       29.88S
KANAB          PTSUNNY   37  32  81 NW12      29.88R WCI  30

$$

REGIONAL REPORTS     COLORADO/ARIZONA

CITY           SKY/WX    TMP DP  RH WIND       PRES   REMARKS
CRAIG, CO      LGT SNOW  28  23  81 NW17      29.72R VSB 3/4 WCI  16
GRAND JUNCTION PTSUNNY   39  30  70 W18G25    29.74R WCI  30
RIFLE          LGT SNOW  34  28  79 SW17G25   29.73R WCI  23
MONTROSE       PTSUNNY   41  23  48 W14G23    29.76R
CORTEZ         CLOUDY    38  30  73 NW7G16    29.81S WCI  33
PAGE, AZ       PTSUNNY   48  26  42 W9        29.80S
GRAND CANYON   MOSUNNY   33  26  75 SW10      29.85S WCI  25
KINGMAN        SUNNY     50  31  48 SW7       29.86F
FLAGSTAFF      NOT AVBL

$$

REGIONAL REPORTS    NEVADA/IDAHO/WYOMING

CITY           SKY/WX    TMP DP  RH WIND       PRES   REMARKS
LAS VEGAS, NV  LGT RAIN  55  35  47 W12G21    29.82F
ELY            CLOUDY    28  15  58 N14       29.92R WCI  17
ELKO           CLOUDY    36  12  37 VRB7      29.97R WCI  30
POCATELLO, ID  SUNNY     28  11  48 W7        29.95R WCI  21
BURLEY         PTSUNNY   37  19  48 CALM      29.91S
EVANSTON, WY   MOSUNNY   24  19  81 SW14      29.79R WCI  12
ROCK SPRINGS   MOSUNNY   14   8  77 E10       29.75R WCI   1

$$



USA.gov is the U.S. government's official web portal to all federal, state and local government web resources and services.